Location: Sabalos
(43.2860°N, 0.1414°E)
Time: 10:41:09
(UTC+00:00)

MTI - Pass Details

Date: 05 July 2020
Orbit: 393 x 405 km, 97.5° (Epoch: 06 August)

Event Time Altitude Azimuth Distance (km) Brightness Sun altitude
Rises 21:46:58 0° 19° (NNE) 2,311 8.1 -16.9°
Reaches altitude 10° 21:49:02 10° 28° (NNE) 1,446 6.8 -17.1°
Enters shadow 21:51:46 38° 88° (E) 621 4.3 -17.4°
